Location: Feydey
(46.3431°N, 7.0106°E)
Time: 22:09:49
(UTC+00:00)

Cosmos 967 Rocket - Pass Details

Date: 20 June 2021
Orbit: 950 x 987 km, 65.8° (Epoch: 23 July)

Event Time Altitude Azimuth Distance (km) Brightness Sun altitude
Rises 21:26:19 0° 324° (NW) 3,665 9.4 -14.5°
Reaches altitude 10° 21:28:52 10° 324° (NW) 2,720 8.2 -14.7°
Maximum altitude 21:35:15 83° 237° (WSW) 989 4.5 -15.2°
Enters shadow 21:39:29 23° 152° (SSE) 1,952 5.4 -15.6°
